Starlink 32789

operational
NORAD ID: 62529 Int'l Des: 2025-004 Owner: SPXS Country: US Constellation: starlink
LEOCIRCULAR

About Starlink 32789

Description loading...

Live Position

Loading 3D Globe...

Upcoming Passes

Altitude History

Altitude vs Time

uPlot chart will show altitude changes over time

Two-Line Element Set

1 62529U 25004U 26034.40305678 .00033658 00000-0 12260-2 0 9991
2 62529 43.0019 53.6070 0001631 281.8596 78.2073 15.27606959 61211
Epoch: Feb 3, 2026 • Age: 19 hours

Current Status

Altitude 489.4 km
Velocity 7.62 km/s
Sub-Earth Point -28.93°S, 174.14°E
Launch Date Jan 8, 2025
Age 1 years
Type internet

Technical Details

Classification Payload
Mass 730.00 kg
Dry Mass 700.00 kg
Total Mass 730.00 kg
Length 0.30 m
Diameter 4.10 m
Span 29.00 m
Shape Box + pan
Manufacturer SPXS
Bus Type Starlink V2M
Phase Status In Orbit
Owner/State SPXS/US

Large Constellations

Loading constellations...